Time,TemperatureF,DewpointF,PressureIn,WindDirection,WindDirectionDegrees,WindSpeedMPH,WindSpeedGustMPH,Humidity,HourlyPrecipIn,Conditions,Clouds,dailyrainin,SoftwareType,DateUTC
2013-07-02 00:01:00,68.8,57.4,30.09,NNE,25,0.0,0.0,67,0.00,CLR,SKC,0.00,WeatherDisplay:10.37,2013-07-02 05:01:00,
2013-07-02 00:06:00,68.6,57.6,30.09,NNE,20,0.0,0.0,68,0.00,CLR,SKC,0.00,WeatherDisplay:10.37,2013-07-02 05:06:00,
2013-07-02 00:11:00,68.2,57.2,30.09,NNE,20,0.0,0.0,68,0.00,CLR,SKC,0.00,WeatherDisplay:10.37,2013-07-02 05:11:00,
2013-07-02 00:16:00,68.0,57.0,30.09,NNE,18,0.0,0.0,68,0.00,CLR,SKC,0.00,WeatherDisplay:10.37,2013-07-02 05:16:00,
2013-07-02 00:21:00,67.7,56.8,30.09,NNE,19,0.0,0.0,68,0.00,CLR,SKC,0.00,WeatherDisplay:10.37,2013-07-02 05:21:00,
2013-07-02 00:26:00,67.3,56.4,30.09,NNE,19,0.0,0.0,68,0.00,CLR,SKC,0.00,WeatherDisplay:10.37,2013-07-02 05:26:00,
2013-07-02 00:31:00,67.0,56.5,30.09,NNE,19,0.0,0.0,69,0.00,CLR,SKC,0.00,WeatherDisplay:10.37,2013-07-02 05:31:00,
2013-07-02 00:36:00,66.8,56.7,30.09,NNE,18,0.0,0.0,70,0.00,CLR,SKC,0.00,WeatherDisplay:10.37,2013-07-02 05:36:00,
2013-07-02 00:41:00,66.8,56.7,30.09,NNE,19,0.0,0.0,70,0.00,CLR,SKC,0.00,WeatherDisplay:10.37,2013-07-02 05:41:00,
2013-07-02 00:46:00,66.8,56.3,30.09,NNE,18,0.0,0.0,69,0.00,CLR,SKC,0.00,WeatherDisplay:10.37,2013-07-02 05:46:00,
2013-07-02 00:51:00,66.8,56.7,30.09,NNE,18,0.0,0.0,70,0.00,CLR,SKC,0.00,WeatherDisplay:10.37,2013-07-02 05:51:00,
2013-07-02 00:56:00,66.7,56.6,30.09,NNE,19,0.0,0.0,70,0.00,CLR,SKC,0.00,WeatherDisplay:10.37,2013-07-02 05:56:00,
2013-07-02 01:01:00,66.6,56.5,30.09,NNE,19,0.0,0.0,70,0.00,CLR,SKC,0.00,WeatherDisplay:10.37,2013-07-02 06:01:00,
2013-07-02 01:06:00,66.6,55.7,30.09,NNE,19,0.0,0.0,68,0.00,CLR,SKC,0.00,WeatherDisplay:10.37,2013-07-02 06:06:00,
2013-07-02 01:11:00,66.8,55.1,30.09,NNE,18,0.0,0.0,66,0.00,CLR,SKC,0.00,WeatherDisplay:10.37,2013-07-02 06:11:00,
2013-07-02 01:16:00,66.9,55.2,30.09,NNE,18,0.0,0.0,66,0.00,CLR,SKC,0.00,WeatherDisplay:10.37,2013-07-02 06:16:00,
2013-07-02 01:21:00,67.1,54.9,30.09,NNE,19,0.0,0.0,65,0.00,CLR,SKC,0.00,WeatherDisplay:10.37,2013-07-02 06:21:00,
2013-07-02 01:26:00,66.8,55.1,30.09,NNE,18,0.0,0.0,66,0.00,CLR,SKC,0.00,WeatherDisplay:10.37,2013-07-02 06:26:00,
2013-07-02 01:31:00,66.4,55.1,30.09,NNE,19,0.0,0.0,67,0.00,CLR,SKC,0.00,WeatherDisplay:10.37,2013-07-02 06:31:00,
2013-07-02 01:36:00,66.2,54.9,30.10,NNE,19,0.0,0.0,67,0.00,CLR,SKC,0.00,WeatherDisplay:10.37,2013-07-02 06:36:00,
2013-07-02 01:41:00,66.0,55.1,30.09,NNE,19,0.0,0.0,68,0.00,CLR,SKC,0.00,WeatherDisplay:10.37,2013-07-02 06:41:00,
2013-07-02 01:46:00,65.8,55.3,30.10,NNE,19,0.0,0.0,69,0.00,CLR,SKC,0.00,WeatherDisplay:10.37,2013-07-02 06:46:00,
2013-07-02 01:51:00,65.1,55.5,30.10,NNE,18,0.0,0.0,71,0.00,CLR,SKC,0.00,WeatherDisplay:10.37,2013-07-02 06:51:00,
2013-07-02 01:56:00,64.6,55.7,30.10,NNE,18,0.0,0.0,73,0.00,CLR,SKC,0.00,WeatherDisplay:10.37,2013-07-02 06:56:00,
2013-07-02 02:01:00,64.2,55.7,30.10,NNE,19,0.0,0.0,74,0.00,CLR,SKC,0.00,WeatherDisplay:10.37,2013-07-02 07:01:00,
2013-07-02 02:06:00,64.3,55.5,30.10,NNE,18,0.0,0.0,73,0.00,CLR,SKC,0.00,WeatherDisplay:10.37,2013-07-02 07:06:00,
2013-07-02 02:12:00,64.2,55.7,30.10,NNE,18,0.0,0.0,74,0.00,CLR,SKC,0.00,WeatherDisplay:10.37,2013-07-02 07:12:00,
2013-07-02 02:17:00,64.0,55.2,30.10,NNE,18,0.0,0.0,73,0.00,CLR,SKC,0.00,WeatherDisplay:10.37,2013-07-02 07:17:00,
2013-07-02 02:22:00,63.7,55.3,30.10,NNE,19,0.0,0.0,74,0.00,CLR,SKC,0.00,WeatherDisplay:10.37,2013-07-02 07:22:00,
2013-07-02 02:27:00,63.2,55.1,30.09,NNE,19,0.0,0.0,75,0.00,CLR,SKC,0.00,WeatherDisplay:10.37,2013-07-02 07:27:00,
2013-07-02 02:32:00,62.8,55.5,30.09,NNE,18,0.0,0.0,77,0.00,CLR,SKC,0.00,WeatherDisplay:10.37,2013-07-02 07:32:00,
2013-07-02 02:37:00,62.6,55.3,30.09,NNE,19,0.0,0.0,77,0.00,CLR,SKC,0.00,WeatherDisplay:10.37,2013-07-02 07:37:00,
2013-07-02 02:42:00,62.1,54.8,30.10,NNE,19,0.0,0.0,77,0.00,CLR,SKC,0.00,WeatherDisplay:10.37,2013-07-02 07:42:00,
2013-07-02 02:47:00,61.7,55.1,30.09,NNE,18,0.0,0.0,79,0.00,CLR,SKC,0.00,WeatherDisplay:10.37,2013-07-02 07:47:00,
2013-07-02 02:52:00,61.5,54.9,30.09,NNE,18,0.0,0.0,79,0.00,CLR,SKC,0.00,WeatherDisplay:10.37,2013-07-02 07:52:00,
2013-07-02 02:57:00,61.7,55.5,30.09,NNE,19,0.0,0.0,80,0.00,CLR,SKC,0.00,WeatherDisplay:10.37,2013-07-02 07:57:00,
2013-07-02 03:02:00,61.6,55.4,30.09,NNE,20,0.0,0.0,80,0.00,CLR,SKC,0.00,WeatherDisplay:10.37,2013-07-02 08:02:00,
2013-07-02 03:07:00,61.3,55.1,30.09,NNE,18,0.0,0.0,80,0.00,CLR,SKC,0.00,WeatherDisplay:10.37,2013-07-02 08:07:00,
2013-07-02 03:12:00,60.9,55.0,30.09,NNE,20,0.0,0.0,81,0.00,CLR,SKC,0.00,WeatherDisplay:10.37,2013-07-02 08:12:00,
2013-07-02 03:17:00,60.5,55.0,30.09,NNE,20,0.0,0.0,82,0.00,CLR,SKC,0.00,WeatherDisplay:10.37,2013-07-02 08:17:00,
2013-07-02 03:22:00,60.4,54.9,30.09,NNE,20,0.0,0.0,82,0.00,CLR,SKC,0.00,WeatherDisplay:10.37,2013-07-02 08:22:00,
2013-07-02 03:27:00,60.9,55.4,30.09,NNE,20,0.0,0.0,82,0.00,CLR,SKC,0.00,WeatherDisplay:10.37,2013-07-02 08:27:00,
2013-07-02 03:32:00,60.9,55.4,30.09,NNE,20,0.0,0.0,82,0.00,CLR,SKC,0.00,WeatherDisplay:10.37,2013-07-02 08:32:00,
2013-07-02 03:37:00,60.6,55.1,30.09,NNE,20,0.0,0.0,82,0.00,CLR,SKC,0.00,WeatherDisplay:10.37,2013-07-02 08:37:00,
2013-07-02 03:42:00,60.6,55.1,30.09,NNE,20,0.0,0.0,82,0.00,CLR,SKC,0.00,WeatherDisplay:10.37,2013-07-02 08:42:00,
2013-07-02 03:47:00,60.4,54.9,30.09,NNE,20,0.0,0.0,82,0.00,CLR,SKC,0.00,WeatherDisplay:10.37,2013-07-02 08:47:00,
2013-07-02 03:52:00,60.2,55.0,30.09,NNE,20,0.0,0.0,83,0.00,CLR,SKC,0.00,WeatherDisplay:10.37,2013-07-02 08:52:00,
2013-07-02 03:57:00,60.0,55.2,30.09,NNE,20,0.0,0.0,84,0.00,CLR,SKC,0.00,WeatherDisplay:10.37,2013-07-02 08:57:00,
2013-07-02 04:02:00,59.9,55.4,30.09,NNE,20,0.0,0.0,85,0.00,BKN,SKC,0.00,WeatherDisplay:10.37,2013-07-02 09:02:00,
2013-07-02 04:07:00,59.9,55.4,30.09,NNE,20,0.0,0.0,85,0.00,BKN,SKC,0.00,WeatherDisplay:10.37,2013-07-02 09:07:00,
2013-07-02 04:12:00,59.7,55.2,30.09,NNE,20,0.0,0.0,85,0.00,BKN,SKC,0.00,WeatherDisplay:10.37,2013-07-02 09:12:00,
2013-07-02 04:17:00,59.6,55.4,30.09,NNE,20,0.0,0.0,86,0.00,BKN,SKC,0.00,WeatherDisplay:10.37,2013-07-02 09:17:00,
2013-07-02 04:22:00,59.4,55.2,30.09,NNE,20,0.0,0.0,86,0.00,BKN,SKC,0.00,WeatherDisplay:10.37,2013-07-02 09:22:00,
2013-07-02 04:27:00,59.3,55.4,30.09,NNE,20,0.0,0.0,87,0.00,BKN,SKC,0.00,WeatherDisplay:10.37,2013-07-02 09:27:00,
2013-07-02 04:32:00,59.1,55.2,30.09,NNE,20,0.0,0.0,87,0.00,BKN,SKC,0.00,WeatherDisplay:10.37,2013-07-02 09:32:00,
2013-07-02 04:37:00,58.8,55.3,30.09,NNE,20,0.0,0.0,88,0.00,BKN,SKC,0.00,WeatherDisplay:10.37,2013-07-02 09:37:00,
2013-07-02 04:42:00,58.9,56.0,30.09,NNE,20,0.0,0.0,90,0.00,SCT,SKC,0.00,WeatherDisplay:10.37,2013-07-02 09:42:00,
2013-07-02 04:47:00,59.1,55.5,30.10,NNE,20,0.0,0.0,88,0.00,SCT,SKC,0.00,WeatherDisplay:10.37,2013-07-02 09:47:00,
2013-07-02 04:52:00,59.4,55.5,30.10,NNE,19,0.0,0.0,87,0.00,SCT,SKC,0.00,WeatherDisplay:10.37,2013-07-02 09:52:00,
2013-07-02 04:57:00,59.9,55.7,30.10,NNE,19,0.0,0.0,86,0.00,SCT,SKC,0.00,WeatherDisplay:10.37,2013-07-02 09:57:00,
2013-07-02 05:02:00,60.0,55.8,30.09,NNE,18,0.0,0.0,86,0.00,SCT,SKC,0.00,WeatherDisplay:10.37,2013-07-02 10:02:00,
2013-07-02 05:07:00,59.7,55.5,30.10,NNE,20,0.0,0.0,86,0.00,SCT,SKC,0.00,WeatherDisplay:10.37,2013-07-02 10:07:00,
2013-07-02 05:12:00,59.4,55.5,30.10,NNE,20,0.0,0.0,87,0.00,SCT,SKC,0.00,WeatherDisplay:10.37,2013-07-02 10:12:00,
2013-07-02 05:17:00,59.3,55.4,30.10,NNE,19,0.0,0.0,87,0.00,SCT,SKC,0.00,WeatherDisplay:10.37,2013-07-02 10:17:00,
2013-07-02 05:22:00,59.3,55.4,30.10,NNE,19,0.0,0.0,87,0.00,BKN,SKC,0.00,WeatherDisplay:10.37,2013-07-02 10:22:00,
2013-07-02 05:27:00,59.5,55.3,30.10,NNE,19,0.0,0.0,86,0.00,BKN,SKC,0.00,WeatherDisplay:10.37,2013-07-02 10:27:00,
2013-07-02 05:32:00,59.6,55.1,30.10,NNE,18,0.0,0.0,85,0.00,BKN,SKC,0.00,WeatherDisplay:10.37,2013-07-02 10:32:00,
2013-07-02 05:37:00,59.4,55.2,30.10,NNE,19,0.0,0.0,86,0.00,BKN,SKC,0.00,WeatherDisplay:10.37,2013-07-02 10:37:00,
2013-07-02 05:42:00,59.4,55.5,30.10,NNE,18,0.0,0.0,87,0.00,SCT,SKC,0.00,WeatherDisplay:10.37,2013-07-02 10:42:00,
2013-07-02 05:47:00,59.5,55.3,30.10,NNE,18,0.0,0.0,86,0.00,SCT,SKC,0.00,WeatherDisplay:10.37,2013-07-02 10:47:00,
2013-07-02 05:52:00,59.5,55.6,30.10,NNE,19,0.0,0.0,87,0.00,SCT,SKC,0.00,WeatherDisplay:10.37,2013-07-02 10:52:00,
2013-07-02 05:57:00,59.4,55.5,30.10,NNE,19,0.0,0.0,87,0.00,SCT,SKC,0.00,WeatherDisplay:10.37,2013-07-02 10:57:00,
2013-07-02 06:02:00,59.3,55.4,30.10,NNE,18,0.0,0.0,87,0.00,BKN,SKC,0.00,WeatherDisplay:10.37,2013-07-02 11:02:00,
2013-07-02 06:07:00,59.3,55.4,30.11,NNE,20,0.0,0.0,87,0.00,BKN,SKC,0.00,WeatherDisplay:10.37,2013-07-02 11:07:00,
2013-07-02 06:12:00,59.3,55.4,30.11,NNE,20,0.0,0.0,87,0.00,BKN,SKC,0.00,WeatherDisplay:10.37,2013-07-02 11:12:00,
2013-07-02 06:17:00,59.4,55.8,30.11,NNE,20,0.0,0.0,88,0.00,BKN,SKC,0.00,WeatherDisplay:10.37,2013-07-02 11:17:00,
2013-07-02 06:22:00,59.6,56.0,30.11,NNE,19,0.0,0.0,88,0.00,BKN,SKC,0.00,WeatherDisplay:10.37,2013-07-02 11:22:00,
2013-07-02 06:27:00,59.7,56.1,30.11,NNE,20,0.0,0.0,88,0.00,BKN,SKC,0.00,WeatherDisplay:10.37,2013-07-02 11:27:00,
2013-07-02 06:32:00,60.0,55.8,30.11,NNE,20,0.0,0.0,86,0.00,SCT,SKC,0.00,WeatherDisplay:10.37,2013-07-02 11:32:00,
2013-07-02 06:37:00,60.1,55.9,30.11,NNE,20,0.0,0.0,86,0.00,SCT,SKC,0.00,WeatherDisplay:10.37,2013-07-02 11:37:00,
2013-07-02 06:42:00,60.4,56.2,30.11,NNE,20,0.0,0.0,86,0.00,SCT,SKC,0.00,WeatherDisplay:10.37,2013-07-02 11:42:00,
2013-07-02 06:47:00,60.5,56.3,30.11,NNE,20,0.0,0.0,86,0.00,SCT,SKC,0.00,WeatherDisplay:10.37,2013-07-02 11:47:00,
2013-07-02 06:52:00,60.7,56.5,30.11,NNE,20,0.0,0.0,86,0.00,BKN,SKC,0.00,WeatherDisplay:10.37,2013-07-02 11:52:00,
2013-07-02 06:57:00,60.7,56.5,30.11,NNE,20,0.0,0.0,86,0.00,BKN,SKC,0.00,WeatherDisplay:10.37,2013-07-02 11:57:00,
2013-07-02 07:02:00,60.8,56.6,30.11,North,10,0.0,0.0,86,0.00,BKN,SKC,0.00,WeatherDisplay:10.37,2013-07-02 12:02:00,
2013-07-02 07:07:00,61.5,57.3,30.11,NNW,330,0.0,0.0,86,0.00,BKN,SKC,0.00,WeatherDisplay:10.37,2013-07-02 12:07:00,
2013-07-02 07:12:00,62.6,57.7,30.11,NNW,329,0.0,0.0,84,0.00,BKN,SKC,0.00,WeatherDisplay:10.37,2013-07-02 12:12:00,
2013-07-02 07:17:00,63.2,57.6,30.11,NNW,329,0.0,0.0,82,0.00,BKN,SKC,0.00,WeatherDisplay:10.37,2013-07-02 12:17:00,
2013-07-02 07:22:00,63.6,58.3,30.11,NNW,330,0.0,0.0,83,0.00,BKN,SKC,0.00,WeatherDisplay:10.37,2013-07-02 12:22:00,
2013-07-02 07:27:00,63.9,58.6,30.11,NNW,330,0.0,0.0,83,0.00,BKN,SKC,0.00,WeatherDisplay:10.37,2013-07-02 12:27:00,
2013-07-02 07:32:00,63.7,58.4,30.11,NNW,330,0.0,0.0,83,0.00,BKN,SKC,0.00,WeatherDisplay:10.37,2013-07-02 12:32:00,
2013-07-02 07:37:00,63.6,58.0,30.11,NNW,330,0.0,0.0,82,0.00,BKN,SKC,0.00,WeatherDisplay:10.37,2013-07-02 12:37:00,
2013-07-02 07:43:00,63.5,57.2,30.11,NNW,330,0.0,0.0,80,0.00,BKN,SKC,0.00,WeatherDisplay:10.37,2013-07-02 12:43:00,
2013-07-02 07:48:00,63.6,57.7,30.11,NNW,330,0.0,0.0,81,0.00,BKN,SKC,0.00,WeatherDisplay:10.37,2013-07-02 12:48:00,
2013-07-02 07:53:00,63.7,57.8,30.11,NNW,330,0.0,0.0,81,0.00,BKN,SKC,0.00,WeatherDisplay:10.37,2013-07-02 12:53:00,
2013-07-02 07:58:00,63.8,58.2,30.11,NNW,330,0.0,0.0,82,0.00,BKN,SKC,0.00,WeatherDisplay:10.37,2013-07-02 12:58:00,
2013-07-02 08:03:00,64.1,58.5,30.11,NNW,330,0.0,0.0,82,0.00,BKN,SKC,0.00,WeatherDisplay:10.37,2013-07-02 13:03:00,
2013-07-02 08:08:00,64.6,58.6,30.11,NNW,330,0.0,0.0,81,0.00,BKN,SKC,0.00,WeatherDisplay:10.37,2013-07-02 13:08:00,
2013-07-02 08:13:00,65.8,59.1,30.11,NNW,330,0.0,0.0,79,0.00,BKN,SKC,0.00,WeatherDisplay:10.37,2013-07-02 13:13:00,
2013-07-02 08:18:00,66.7,58.9,30.11,NNW,328,0.0,0.0,76,0.00,BKN,SKC,0.00,WeatherDisplay:10.37,2013-07-02 13:18:00,
2013-07-02 08:23:00,67.5,59.7,30.11,ESE,113,0.0,0.0,76,0.00,BKN,SKC,0.00,WeatherDisplay:10.37,2013-07-02 13:23:00,
2013-07-02 08:28:00,67.8,60.0,30.12,SE,124,0.0,0.0,76,0.00,BKN,SKC,0.00,WeatherDisplay:10.37,2013-07-02 13:28:00,
2013-07-02 08:33:00,67.8,60.0,30.12,ESE,111,0.0,0.0,76,0.00,SCT,SKC,0.00,WeatherDisplay:10.37,2013-07-02 13:33:00,
2013-07-02 08:38:00,67.4,59.6,30.12,ESE,111,0.0,0.0,76,0.00,SCT,SKC,0.00,WeatherDisplay:10.37,2013-07-02 13:38:00,
2013-07-02 08:43:00,67.2,59.7,30.11,ESE,111,0.0,0.0,77,0.00,SCT,SKC,0.00,WeatherDisplay:10.37,2013-07-02 13:43:00,
2013-07-02 08:48:00,67.1,58.9,30.11,ESE,111,0.0,0.0,75,0.00,SCT,SKC,0.00,WeatherDisplay:10.37,2013-07-02 13:48:00,
2013-07-02 08:53:00,67.3,59.5,30.12,ESE,110,0.0,0.0,76,0.00,SCT,SKC,0.00,WeatherDisplay:10.37,2013-07-02 13:53:00,
2013-07-02 08:58:00,67.5,59.7,30.12,ESE,110,0.0,0.0,76,0.00,SCT,SKC,0.00,WeatherDisplay:10.37,2013-07-02 13:58:00,
2013-07-02 09:03:00,67.7,59.5,30.11,ESE,111,0.0,0.0,75,0.00,SCT,SKC,0.00,WeatherDisplay:10.37,2013-07-02 14:03:00,
2013-07-02 09:08:00,67.7,59.1,30.11,ESE,111,0.0,0.0,74,0.00,SCT,SKC,0.00,WeatherDisplay:10.37,2013-07-02 14:08:00,
2013-07-02 09:13:00,67.9,59.7,30.11,ESE,111,0.0,0.0,75,0.00,SCT,SKC,0.00,WeatherDisplay:10.37,2013-07-02 14:13:00,
2013-07-02 09:18:00,68.0,59.0,30.11,ESE,111,0.0,0.0,73,0.00,SCT,SKC,0.00,WeatherDisplay:10.37,2013-07-02 14:18:00,
2013-07-02 09:23:00,67.9,59.7,30.11,ESE,110,0.0,0.0,75,0.00,OVC,SKC,0.00,WeatherDisplay:10.37,2013-07-02 14:23:00,
2013-07-02 09:28:00,67.9,60.1,30.11,ESE,110,0.0,0.0,76,0.00,OVC,SKC,0.00,WeatherDisplay:10.37,2013-07-02 14:28:00,
2013-07-02 09:33:00,67.7,60.6,30.12,NNE,14,2.2,3.5,78,0.00,OVC,SKC,0.00,WeatherDisplay:10.37,2013-07-02 14:33:00,
2013-07-02 09:38:00,67.3,59.8,30.13,NE,37,4.4,8.1,77,0.00,OVC,SKC,0.00,WeatherDisplay:10.37,2013-07-02 14:38:00,
2013-07-02 09:43:00,67.0,59.2,30.13,NNE,27,2.3,3.5,76,0.00,OVC,SKC,0.00,WeatherDisplay:10.37,2013-07-02 14:43:00,
2013-07-02 09:48:00,66.8,58.6,30.13,NNW,330,3.1,5.8,75,0.00,OVC,SKC,0.00,WeatherDisplay:10.37,2013-07-02 14:48:00,
2013-07-02 09:53:00,66.8,58.2,30.13,North,1,2.3,3.5,74,0.00,OVC,SKC,0.00,WeatherDisplay:10.37,2013-07-02 14:53:00,
2013-07-02 09:58:00,66.7,57.8,30.13,NNE,14,1.5,3.5,73,0.00,OVC,SKC,0.00,WeatherDisplay:10.37,2013-07-02 14:58:00,
2013-07-02 10:03:00,66.6,57.7,30.13,NNE,20,0.5,2.3,73,0.00,-RA,SKC,0.00,WeatherDisplay:10.37,2013-07-02 15:03:00,
2013-07-02 10:08:00,66.4,57.9,30.12,NNE,19,0.0,0.0,74,0.00,-RA,SKC,0.00,WeatherDisplay:10.37,2013-07-02 15:08:00,
2013-07-02 10:13:00,66.4,57.9,30.12,West,281,0.0,0.0,74,0.00,-RA,SKC,0.00,WeatherDisplay:10.37,2013-07-02 15:13:00,
2013-07-02 10:18:00,66.7,58.5,30.12,SW,236,0.0,0.0,75,0.00,-RA,SKC,0.00,WeatherDisplay:10.37,2013-07-02 15:18:00,
2013-07-02 10:23:00,67.0,58.4,30.11,WSW,239,0.0,0.0,74,0.00,BKN,SKC,0.00,WeatherDisplay:10.37,2013-07-02 15:23:00,
2013-07-02 10:28:00,67.4,57.7,30.11,WSW,250,0.9,1.1,71,0.00,BKN,SKC,0.00,WeatherDisplay:10.37,2013-07-02 15:28:00,
2013-07-02 10:33:00,67.6,58.6,30.10,SW,231,1.7,3.5,73,0.00,BKN,SKC,0.00,WeatherDisplay:10.37,2013-07-02 15:33:00,
2013-07-02 10:38:00,67.6,59.0,30.10,WSW,247,1.4,3.5,74,0.00,BKN,SKC,0.00,WeatherDisplay:10.37,2013-07-02 15:38:00,
2013-07-02 10:43:00,67.9,59.7,30.10,WSW,238,0.0,0.0,75,0.00,BKN,SKC,0.00,WeatherDisplay:10.37,2013-07-02 15:43:00,
2013-07-02 10:48:00,68.5,59.5,30.10,SW,225,0.1,1.0,73,0.00,BKN,SKC,0.00,WeatherDisplay:10.37,2013-07-02 15:48:00,
2013-07-02 10:53:00,69.1,59.3,30.10,WSW,257,0.0,0.0,71,0.00,BKN,SKC,0.00,WeatherDisplay:10.37,2013-07-02 15:53:00,
2013-07-02 10:58:00,69.6,59.4,30.10,West,270,0.0,0.0,70,0.00,BKN,SKC,0.00,WeatherDisplay:10.37,2013-07-02 15:58:00,
2013-07-02 11:03:00,70.4,59.7,30.10,West,263,0.0,0.0,69,0.00,BKN,SKC,0.00,WeatherDisplay:10.37,2013-07-02 16:03:00,
2013-07-02 11:08:00,71.3,59.8,30.10,ESE,122,1.1,2.3,67,0.00,BKN,SKC,0.00,WeatherDisplay:10.37,2013-07-02 16:08:00,
2013-07-02 11:13:00,71.9,59.1,30.10,SE,124,2.1,3.5,64,0.00,BKN,SKC,0.00,WeatherDisplay:10.37,2013-07-02 16:13:00,
2013-07-02 11:18:00,72.7,58.9,30.10,SE,145,0.2,1.1,62,0.00,BKN,SKC,0.00,WeatherDisplay:10.37,2013-07-02 16:18:00,
2013-07-02 11:23:00,73.7,57.5,30.10,SW,220,0.7,1.1,57,0.00,BKN,SKC,0.00,WeatherDisplay:10.37,2013-07-02 16:23:00,
2013-07-02 11:28:00,74.6,58.4,30.10,SW,232,0.3,2.3,57,0.00,BKN,SKC,0.00,WeatherDisplay:10.37,2013-07-02 16:28:00,
2013-07-02 11:33:00,75.3,58.0,30.10,East,93,0.5,2.3,55,0.00,BKN,SKC,0.00,WeatherDisplay:10.37,2013-07-02 16:33:00,
2013-07-02 11:38:00,75.9,59.1,30.10,SW,230,1.0,2.3,56,0.00,BKN,SKC,0.00,WeatherDisplay:10.37,2013-07-02 16:38:00,
2013-07-02 11:43:00,76.2,58.3,30.10,SSE,167,2.3,3.5,54,0.00,SCT,SKC,0.00,WeatherDisplay:10.37,2013-07-02 16:43:00,
2013-07-02 11:48:00,76.7,57.7,30.10,SW,221,0.3,1.1,52,0.00,SCT,SKC,0.00,WeatherDisplay:10.37,2013-07-02 16:48:00,
2013-07-02 11:53:00,76.8,57.8,30.10,WSW,238,1.1,2.3,52,0.00,SCT,SKC,0.00,WeatherDisplay:10.37,2013-07-02 16:53:00,
2013-07-02 11:58:00,77.4,57.3,30.10,SE,143,0.2,1.1,50,0.00,SCT,SKC,0.00,WeatherDisplay:10.37,2013-07-02 16:58:00,
2013-07-02 12:03:00,77.3,56.1,30.10,SSE,165,1.1,3.5,48,0.00,CLR,SKC,0.00,WeatherDisplay:10.37,2013-07-02 17:03:00,
2013-07-02 12:08:00,77.2,56.0,30.10,WSW,238,1.8,3.5,48,0.00,CLR,SKC,0.00,WeatherDisplay:10.37,2013-07-02 17:08:00,
2013-07-02 12:13:00,76.9,56.8,30.10,WNW,298,0.2,1.1,50,0.00,CLR,SKC,0.00,WeatherDisplay:10.37,2013-07-02 17:13:00,
2013-07-02 12:18:00,77.6,58.6,30.10,SSW,208,1.0,3.5,52,0.00,CLR,SKC,0.00,WeatherDisplay:10.37,2013-07-02 17:18:00,
2013-07-02 12:23:00,78.1,56.8,30.10,SW,217,1.4,2.3,48,0.00,CLR,SKC,0.00,WeatherDisplay:10.37,2013-07-02 17:23:00,
2013-07-02 12:28:00,78.3,56.4,30.10,West,279,3.7,5.0,47,0.00,CLR,SKC,0.00,WeatherDisplay:10.37,2013-07-02 17:28:00,
2013-07-02 12:33:00,78.1,57.4,30.10,WSW,253,1.6,3.0,49,0.00,CLR,SKC,0.00,WeatherDisplay:10.37,2013-07-02 17:33:00,
2013-07-02 12:38:00,78.3,56.4,30.09,WNW,295,1.9,3.0,47,0.00,CLR,SKC,0.00,WeatherDisplay:10.37,2013-07-02 17:38:00,
2013-07-02 12:43:00,78.8,56.9,30.09,SW,228,1.8,2.3,47,0.00,CLR,SKC,0.00,WeatherDisplay:10.37,2013-07-02 17:43:00,
2013-07-02 12:49:00,78.9,55.8,30.09,WNW,284,2.5,3.5,45,0.00,CLR,SKC,0.00,WeatherDisplay:10.37,2013-07-02 17:49:00,
2013-07-02 12:54:00,78.9,57.0,30.09,WSW,255,1.8,3.0,47,0.00,CLR,SKC,0.00,WeatherDisplay:10.37,2013-07-02 17:54:00,
2013-07-02 12:59:00,78.6,56.1,30.09,SW,222,2.8,3.5,46,0.00,CLR,SKC,0.00,WeatherDisplay:10.37,2013-07-02 17:59:00,
2013-07-02 13:04:00,79.3,55.5,30.09,WSW,248,1.0,2.3,44,0.00,CLR,SKC,0.00,WeatherDisplay:10.37,2013-07-02 18:04:00,
2013-07-02 13:09:00,79.5,55.7,30.09,SW,217,2.0,4.0,44,0.00,CLR,SKC,0.00,WeatherDisplay:10.37,2013-07-02 18:09:00,
2013-07-02 13:14:00,79.7,53.9,30.09,West,278,1.8,5.8,41,0.00,CLR,SKC,0.00,WeatherDisplay:10.37,2013-07-02 18:14:00,
2013-07-02 13:19:00,80.0,57.4,30.09,SE,129,1.6,3.5,46,0.00,CLR,SKC,0.00,WeatherDisplay:10.37,2013-07-02 18:19:00,
2013-07-02 13:24:00,80.2,55.0,30.09,SW,224,1.8,3.5,42,0.00,CLR,SKC,0.00,WeatherDisplay:10.37,2013-07-02 18:24:00,
2013-07-02 13:29:00,80.5,55.9,30.08,West,267,0.6,1.1,43,0.00,CLR,SKC,0.00,WeatherDisplay:10.37,2013-07-02 18:29:00,
2013-07-02 13:34:00,80.0,54.8,30.08,SW,230,1.3,2.3,42,0.00,CLR,SKC,0.00,WeatherDisplay:10.37,2013-07-02 18:34:00,
2013-07-02 13:39:00,80.1,54.9,30.08,SW,221,1.4,3.5,42,0.00,CLR,SKC,0.00,WeatherDisplay:10.37,2013-07-02 18:39:00,
2013-07-02 13:44:00,80.7,54.8,30.08,SE,138,1.6,5.0,41,0.00,CLR,SKC,0.00,WeatherDisplay:10.37,2013-07-02 18:44:00,
2013-07-02 13:49:00,81.2,55.3,30.08,SSE,148,2.0,3.5,41,0.00,CLR,SKC,0.00,WeatherDisplay:10.37,2013-07-02 18:49:00,
2013-07-02 13:54:00,81.2,56.6,30.08,SW,228,1.2,2.3,43,0.00,CLR,SKC,0.00,WeatherDisplay:10.37,2013-07-02 18:54:00,
2013-07-02 13:59:00,80.8,56.2,30.07,NW,315,2.0,3.5,43,0.00,CLR,SKC,0.00,WeatherDisplay:10.37,2013-07-02 18:59:00,
2013-07-02 14:04:00,80.4,55.2,30.07,WSW,249,1.6,3.5,42,0.00,CLR,SKC,0.00,WeatherDisplay:10.37,2013-07-02 19:04:00,
2013-07-02 14:09:00,80.6,54.0,30.07,ESE,121,2.2,3.5,40,0.00,CLR,SKC,0.00,WeatherDisplay:10.37,2013-07-02 19:09:00,
2013-07-02 14:14:00,81.5,54.8,30.07,WNW,301,0.8,2.3,40,0.00,CLR,SKC,0.00,WeatherDisplay:10.37,2013-07-02 19:14:00,
2013-07-02 14:19:00,81.4,54.1,30.07,ENE,73,2.2,3.5,39,0.00,CLR,SKC,0.00,WeatherDisplay:10.37,2013-07-02 19:19:00,
2013-07-02 14:24:00,81.8,54.4,30.07,WSW,255,1.5,3.5,39,0.00,CLR,SKC,0.00,WeatherDisplay:10.37,2013-07-02 19:24:00,
2013-07-02 14:29:00,81.7,55.0,30.07,South,190,3.2,4.6,40,0.00,CLR,SKC,0.00,WeatherDisplay:10.37,2013-07-02 19:29:00,
2013-07-02 14:34:00,82.4,55.7,30.07,SW,217,2.3,3.5,40,0.00,CLR,SKC,0.00,WeatherDisplay:10.37,2013-07-02 19:34:00,
2013-07-02 14:39:00,82.7,55.9,30.06,SSE,157,1.2,4.0,40,0.00,CLR,SKC,0.00,WeatherDisplay:10.37,2013-07-02 19:39:00,
2013-07-02 14:44:00,82.7,55.2,30.06,NW,313,4.0,4.6,39,0.00,CLR,SKC,0.00,WeatherDisplay:10.37,2013-07-02 19:44:00,
2013-07-02 14:49:00,82.1,56.1,30.06,SW,225,1.2,2.3,41,0.00,CLR,SKC,0.00,WeatherDisplay:10.37,2013-07-02 19:49:00,
2013-07-02 14:54:00,83.1,56.3,30.05,ESE,113,1.1,2.3,40,0.00,CLR,SKC,0.00,WeatherDisplay:10.37,2013-07-02 19:54:00,
2013-07-02 14:59:00,83.2,55.7,30.05,WSW,239,2.8,5.8,39,0.00,CLR,SKC,0.00,WeatherDisplay:10.37,2013-07-02 19:59:00,
2013-07-02 15:04:00,82.8,58.7,30.05,WSW,245,1.8,3.5,44,0.00,CLR,SKC,0.00,WeatherDisplay:10.37,2013-07-02 20:04:00,
2013-07-02 15:09:00,82.7,57.3,30.05,NE,41,1.4,3.5,42,0.00,CLR,SKC,0.00,WeatherDisplay:10.37,2013-07-02 20:09:00,
2013-07-02 15:14:00,82.6,55.8,30.04,NNW,337,0.0,1.0,40,0.00,CLR,SKC,0.00,WeatherDisplay:10.37,2013-07-02 20:14:00,
2013-07-02 15:19:00,82.6,55.8,30.04,NE,56,2.3,3.5,40,0.00,CLR,SKC,0.00,WeatherDisplay:10.37,2013-07-02 20:19:00,
2013-07-02 15:24:00,81.9,55.9,30.04,WNW,284,1.0,2.3,41,0.00,CLR,SKC,0.00,WeatherDisplay:10.37,2013-07-02 20:24:00,
2013-07-02 15:29:00,81.9,56.6,30.04,West,263,0.2,1.0,42,0.00,CLR,SKC,0.00,WeatherDisplay:10.37,2013-07-02 20:29:00,
2013-07-02 15:34:00,81.9,55.2,30.04,NNW,328,0.5,1.1,40,0.00,CLR,SKC,0.00,WeatherDisplay:10.37,2013-07-02 20:34:00,
2013-07-02 15:39:00,82.2,56.2,30.04,NNE,23,0.3,1.1,41,0.00,CLR,SKC,0.00,WeatherDisplay:10.37,2013-07-02 20:39:00,
2013-07-02 15:44:00,81.7,55.0,30.04,NW,321,0.4,0.0,40,0.00,CLR,SKC,0.00,WeatherDisplay:10.37,2013-07-02 20:44:00,
2013-07-02 15:49:00,81.1,55.2,30.04,NE,48,1.7,2.3,41,0.00,CLR,SKC,0.00,WeatherDisplay:10.37,2013-07-02 20:49:00,
2013-07-02 15:54:00,80.7,54.1,30.04,NE,49,0.0,0.0,40,0.00,CLR,SKC,0.00,WeatherDisplay:10.37,2013-07-02 20:54:00,
2013-07-02 15:59:00,80.6,56.0,30.04,NNE,17,0.6,1.1,43,0.00,CLR,SKC,0.00,WeatherDisplay:10.37,2013-07-02 20:59:00,
2013-07-02 16:04:00,80.1,56.2,30.04,NNE,18,0.0,0.0,44,0.00,CLR,SKC,0.00,WeatherDisplay:10.37,2013-07-02 21:04:00,
2013-07-02 16:09:00,80.2,55.7,30.04,NNE,17,0.0,0.0,43,0.00,CLR,SKC,0.00,WeatherDisplay:10.37,2013-07-02 21:09:00,
2013-07-02 16:14:00,79.8,55.9,30.03,NW,323,0.0,0.0,44,0.00,CLR,SKC,0.00,WeatherDisplay:10.37,2013-07-02 21:14:00,
2013-07-02 16:19:00,79.6,55.8,30.03,North,1,0.5,1.1,44,0.00,CLR,SKC,0.00,WeatherDisplay:10.37,2013-07-02 21:19:00,
2013-07-02 16:24:00,79.2,56.6,30.03,North,11,0.3,2.0,46,0.00,CLR,SKC,0.00,WeatherDisplay:10.37,2013-07-02 21:24:00,
2013-07-02 16:29:00,79.0,57.0,30.02,North,349,0.0,0.0,47,0.00,CLR,SKC,0.00,WeatherDisplay:10.37,2013-07-02 21:29:00,
2013-07-02 16:34:00,79.2,56.6,30.02,North,349,0.0,0.0,46,0.00,CLR,SKC,0.00,WeatherDisplay:10.37,2013-07-02 21:34:00,
2013-07-02 16:39:00,79.4,58.0,30.02,North,349,0.0,0.0,48,0.00,CLR,SKC,0.00,WeatherDisplay:10.37,2013-07-02 21:39:00,
2013-07-02 16:44:00,79.8,58.4,30.02,North,349,0.0,0.0,48,0.00,CLR,SKC,0.00,WeatherDisplay:10.37,2013-07-02 21:44:00,
2013-07-02 16:49:00,80.2,57.5,30.03,North,349,0.0,0.0,46,0.00,CLR,SKC,0.00,WeatherDisplay:10.37,2013-07-02 21:49:00,
2013-07-02 16:54:00,80.3,57.6,30.02,North,349,0.0,0.0,46,0.00,CLR,SKC,0.00,WeatherDisplay:10.37,2013-07-02 21:54:00,
2013-07-02 16:59:00,80.0,56.1,30.02,NNW,346,0.0,0.0,44,0.00,CLR,SKC,0.00,WeatherDisplay:10.37,2013-07-02 21:59:00,
2013-07-02 17:04:00,79.9,57.3,30.02,NNW,346,0.0,0.0,46,0.00,CLR,SKC,0.00,WeatherDisplay:10.37,2013-07-02 22:04:00,
2013-07-02 17:09:00,79.9,56.7,30.02,NNW,345,0.0,0.0,45,0.00,CLR,SKC,0.00,WeatherDisplay:10.37,2013-07-02 22:09:00,
2013-07-02 17:14:00,80.1,57.5,30.02,NNW,346,0.0,0.0,46,0.00,CLR,SKC,0.00,WeatherDisplay:10.37,2013-07-02 22:14:00,
2013-07-02 17:19:00,80.0,56.7,30.02,NNW,346,0.0,0.0,45,0.00,CLR,SKC,0.00,WeatherDisplay:10.37,2013-07-02 22:19:00,
2013-07-02 17:24:00,80.1,56.8,30.02,NNW,346,0.0,0.0,45,0.00,CLR,SKC,0.00,WeatherDisplay:10.37,2013-07-02 22:24:00,
2013-07-02 17:29:00,80.2,56.9,30.03,NNW,346,0.0,0.0,45,0.00,CLR,SKC,0.00,WeatherDisplay:10.37,2013-07-02 22:29:00,
2013-07-02 17:34:00,80.4,57.1,30.03,NNW,345,0.0,0.0,45,0.00,CLR,SKC,0.00,WeatherDisplay:10.37,2013-07-02 22:34:00,
2013-07-02 17:39:00,80.4,59.5,30.03,NNW,346,0.0,0.0,49,0.00,CLR,SKC,0.00,WeatherDisplay:10.37,2013-07-02 22:39:00,
2013-07-02 17:44:00,80.2,59.3,30.03,NNW,345,0.0,1.1,49,0.00,CLR,SKC,0.00,WeatherDisplay:10.37,2013-07-02 22:44:00,
2013-07-02 17:45:00,80.2,59.3,30.03,NNW,345,0.0,1.1,49,0.00,CLR,SKC,0.00,WeatherDisplay:10.37,2013-07-02 22:45:00,
2013-07-02 17:50:00,80.6,60.8,30.03,NNW,333,0.0,0.0,51,0.00,CLR,SKC,0.00,WeatherDisplay:10.37,2013-07-02 22:50:00,
2013-07-02 17:55:00,80.7,58.6,30.02,West,265,0.8,1.0,47,0.00,CLR,SKC,0.00,WeatherDisplay:10.37,2013-07-02 22:55:00,
2013-07-02 18:00:00,79.4,58.6,30.03,West,269,5.7,12.7,49,0.00,CLR,SKC,0.00,WeatherDisplay:10.37,2013-07-02 23:00:00,
2013-07-02 18:05:00,77.7,57.6,30.02,West,278,5.7,6.0,50,0.00,SCT,SKC,0.00,WeatherDisplay:10.37,2013-07-02 23:05:00,
2013-07-02 18:10:00,76.8,56.8,30.02,West,259,5.0,8.1,50,0.00,SCT,SKC,0.00,WeatherDisplay:10.37,2013-07-02 23:10:00,
2013-07-02 18:15:00,76.6,56.0,30.02,SW,219,5.1,10.4,49,0.00,SCT,SKC,0.00,WeatherDisplay:10.37,2013-07-02 23:15:00,
2013-07-02 18:20:00,76.4,55.8,30.03,WSW,246,3.8,11.5,49,0.00,SCT,SKC,0.00,WeatherDisplay:10.37,2013-07-02 23:20:00,
2013-07-02 18:25:00,76.3,55.7,30.03,SW,236,1.7,3.5,49,0.00,SCT,SKC,0.00,WeatherDisplay:10.37,2013-07-02 23:25:00,
2013-07-02 18:29:00,76.4,55.3,30.03,SW,228,1.8,5.8,48,0.00,SCT,SKC,0.00,WeatherDisplay:10.37,2013-07-02 23:29:00,
2013-07-02 18:34:00,76.5,55.9,30.03,WNW,293,3.9,4.6,49,0.00,SCT,SKC,0.00,WeatherDisplay:10.37,2013-07-02 23:34:00,
2013-07-02 18:39:00,76.3,56.3,30.03,WSW,249,1.5,5.8,50,0.00,SCT,SKC,0.00,WeatherDisplay:10.37,2013-07-02 23:39:00,
2013-07-02 18:44:00,76.0,56.6,30.02,WSW,246,2.7,4.6,51,0.00,CLR,SKC,0.00,WeatherDisplay:10.37,2013-07-02 23:44:00,
2013-07-02 18:49:00,75.6,56.7,30.02,West,265,2.0,4.6,52,0.00,CLR,SKC,0.00,WeatherDisplay:10.37,2013-07-02 23:49:00,
2013-07-02 18:54:00,75.3,56.5,30.02,WNW,301,4.1,6.9,52,0.00,CLR,SKC,0.00,WeatherDisplay:10.37,2013-07-02 23:54:00,
2013-07-02 18:59:00,74.9,56.6,30.02,West,262,3.4,5.8,53,0.00,CLR,SKC,0.00,WeatherDisplay:10.37,2013-07-02 23:59:00,
2013-07-02 19:02:00,74.7,56.4,30.02,WSW,242,2.8,4.6,53,0.00,SCT,SKC,0.00,WeatherDisplay:10.37,2013-07-03 00:02:00,
2013-07-02 19:06:00,74.6,56.3,30.02,WSW,255,3.3,5.0,53,0.00,SCT,SKC,0.00,WeatherDisplay:10.37,2013-07-03 00:06:00,
2013-07-02 19:11:00,74.5,56.8,30.02,SW,231,0.4,1.1,54,0.00,SCT,SKC,0.00,WeatherDisplay:10.37,2013-07-03 00:11:00,
2013-07-02 19:16:00,74.6,56.3,30.01,WSW,245,1.7,2.3,53,0.00,SCT,SKC,0.00,WeatherDisplay:10.37,2013-07-03 00:16:00,
2013-07-02 19:21:00,74.7,56.9,30.01,WSW,241,0.1,1.1,54,0.00,SCT,SKC,0.00,WeatherDisplay:10.37,2013-07-03 00:21:00,
2013-07-02 19:23:00,74.8,57.0,30.01,WSW,239,0.0,0.0,54,0.00,SCT,SKC,0.00,WeatherDisplay:10.37,2013-07-03 00:23:00,
2013-07-02 19:24:00,74.9,57.1,30.01,SW,233,0.0,0.0,54,0.00,SCT,SKC,0.00,WeatherDisplay:10.37,2013-07-03 00:24:00,
2013-07-02 19:28:00,75.0,56.7,30.01,West,271,1.3,3.5,53,0.00,SCT,SKC,0.00,WeatherDisplay:10.37,2013-07-03 00:28:00,
2013-07-02 19:33:00,75.0,56.7,30.01,WSW,255,1.6,4.0,53,0.00,SCT,SKC,0.00,WeatherDisplay:10.37,2013-07-03 00:33:00,
2013-07-02 19:38:00,74.8,56.5,30.01,West,277,0.7,2.3,53,0.00,SCT,SKC,0.00,WeatherDisplay:10.37,2013-07-03 00:38:00,
2013-07-02 19:43:00,74.7,56.4,30.01,WNW,293,0.9,3.5,53,0.00,CLR,SKC,0.00,WeatherDisplay:10.37,2013-07-03 00:43:00,
2013-07-02 19:48:00,74.6,57.4,30.01,North,3,0.0,1.1,55,0.00,CLR,SKC,0.00,WeatherDisplay:10.37,2013-07-03 00:48:00,
2013-07-02 19:53:00,74.3,57.6,30.01,NNE,27,0.0,1.1,56,0.00,CLR,SKC,0.00,WeatherDisplay:10.37,2013-07-03 00:53:00,
2013-07-02 19:58:00,74.1,57.4,30.02,North,3,0.9,2.3,56,0.00,CLR,SKC,0.00,WeatherDisplay:10.37,2013-07-03 00:58:00,
2013-07-02 20:00:00,74.0,56.8,30.01,NNE,15,1.7,3.0,55,0.00,CLR,SKC,0.00,WeatherDisplay:10.37,2013-07-03 01:00:00,
2013-07-02 20:03:00,74.0,57.3,30.02,North,8,0.0,1.1,56,0.00,BKN,SKC,0.00,WeatherDisplay:10.37,2013-07-03 01:03:00,
2013-07-02 20:08:00,73.8,57.6,30.02,NNW,346,0.0,1.1,57,0.00,BKN,SKC,0.00,WeatherDisplay:10.37,2013-07-03 01:08:00,
2013-07-02 20:09:00,73.8,58.1,30.02,NNW,347,0.0,0.0,58,0.00,BKN,SKC,0.00,WeatherDisplay:10.37,2013-07-03 01:09:00,
2013-07-02 20:14:00,73.5,57.8,30.02,West,271,0.0,0.0,58,0.00,BKN,SKC,0.00,WeatherDisplay:10.37,2013-07-03 01:14:00,
2013-07-02 20:19:00,72.9,58.2,30.02,North,3,0.5,2.3,60,0.00,BKN,SKC,0.00,WeatherDisplay:10.37,2013-07-03 01:19:00,
2013-07-02 20:24:00,72.3,59.0,30.02,NNW,336,0.4,1.1,63,0.00,BKN,SKC,0.00,WeatherDisplay:10.37,2013-07-03 01:24:00,
2013-07-02 20:26:00,72.0,59.2,30.02,SE,125,0.4,2.3,64,0.00,BKN,SKC,0.00,WeatherDisplay:10.37,2013-07-03 01:26:00,
2013-07-02 20:31:00,71.3,58.9,30.02,WNW,287,0.0,0.0,65,0.00,BKN,SKC,0.00,WeatherDisplay:10.37,2013-07-03 01:31:00,
2013-07-02 20:36:00,70.5,57.7,30.02,WNW,284,1.6,3.5,64,0.00,BKN,SKC,0.00,WeatherDisplay:10.37,2013-07-03 01:36:00,
2013-07-02 20:41:00,70.1,57.4,30.02,WNW,283,0.0,1.1,64,0.00,CLR,SKC,0.00,WeatherDisplay:10.37,2013-07-03 01:41:00,
2013-07-02 20:46:00,69.6,58.6,30.02,WNW,288,0.0,1.1,68,0.00,CLR,SKC,0.00,WeatherDisplay:10.37,2013-07-03 01:46:00,
2013-07-02 20:49:00,69.3,57.5,30.02,WNW,288,0.0,0.0,66,0.00,CLR,SKC,0.00,WeatherDisplay:10.37,2013-07-03 01:49:00,
2013-07-02 20:50:00,69.2,57.4,30.02,West,280,0.0,0.0,66,0.00,CLR,SKC,0.00,WeatherDisplay:10.37,2013-07-03 01:50:00,
2013-07-02 20:56:00,69.5,57.2,30.01,West,270,1.1,2.3,65,0.00,CLR,SKC,0.00,WeatherDisplay:10.37,2013-07-03 01:56:00,
2013-07-02 21:01:00,69.9,56.3,30.01,West,276,0.0,0.0,62,0.00,CLR,SKC,0.00,WeatherDisplay:10.37,2013-07-03 02:01:00,
2013-07-02 21:06:00,69.9,58.4,30.01,West,276,0.0,0.0,67,0.00,CLR,SKC,0.00,WeatherDisplay:10.37,2013-07-03 02:06:00,
2013-07-02 21:11:00,68.8,57.4,30.02,NW,304,0.0,0.0,67,0.00,CLR,SKC,0.00,WeatherDisplay:10.37,2013-07-03 02:11:00,
2013-07-02 21:16:00,69.0,58.4,30.01,West,267,0.0,0.0,69,0.00,CLR,SKC,0.00,WeatherDisplay:10.37,2013-07-03 02:16:00,
2013-07-02 21:22:00,68.6,58.4,30.01,SE,125,0.0,0.0,70,0.00,CLR,SKC,0.00,WeatherDisplay:10.37,2013-07-03 02:22:00,
2013-07-02 21:27:00,68.1,57.9,30.02,SE,125,0.0,0.0,70,0.00,CLR,SKC,0.00,WeatherDisplay:10.37,2013-07-03 02:27:00,
2013-07-02 21:32:00,67.7,56.8,30.01,SE,126,0.0,0.0,68,0.00,CLR,SKC,0.00,WeatherDisplay:10.37,2013-07-03 02:32:00,
2013-07-02 21:38:00,67.8,56.9,30.01,SE,125,0.0,0.0,68,0.00,CLR,SKC,0.00,WeatherDisplay:10.37,2013-07-03 02:38:00,
2013-07-02 21:43:00,67.3,58.0,30.02,SE,126,0.0,0.0,72,0.00,CLR,SKC,0.00,WeatherDisplay:10.37,2013-07-03 02:43:00,
2013-07-02 21:47:00,66.8,58.2,30.02,SE,126,0.0,0.0,74,0.00,CLR,SKC,0.00,WeatherDisplay:10.37,2013-07-03 02:47:00,
2013-07-02 21:52:00,66.3,57.4,30.01,SW,235,0.0,0.0,73,0.00,CLR,SKC,0.00,WeatherDisplay:10.37,2013-07-03 02:52:00,
2013-07-02 21:57:00,66.4,57.5,30.01,SW,235,0.0,0.0,73,0.00,CLR,SKC,0.00,WeatherDisplay:10.37,2013-07-03 02:57:00,
2013-07-02 22:02:00,66.3,58.1,30.02,SW,234,0.0,0.0,75,0.00,CLR,SKC,0.00,WeatherDisplay:10.37,2013-07-03 03:02:00,
2013-07-02 22:04:00,66.1,57.6,30.02,SW,234,0.0,0.0,74,0.00,CLR,SKC,0.00,WeatherDisplay:10.37,2013-07-03 03:04:00,
2013-07-02 22:09:00,66.1,57.2,30.02,SW,234,0.1,0.0,73,0.00,CLR,SKC,0.00,WeatherDisplay:10.37,2013-07-03 03:09:00,
2013-07-02 22:14:00,66.2,58.0,30.02,WSW,256,0.0,2.0,75,0.00,CLR,SKC,0.00,WeatherDisplay:10.37,2013-07-03 03:14:00,
2013-07-02 22:20:00,66.0,57.8,30.02,North,356,0.0,0.0,75,0.00,CLR,SKC,0.00,WeatherDisplay:10.37,2013-07-03 03:20:00,
2013-07-02 22:21:00,66.0,57.8,30.02,North,356,0.0,0.0,75,0.00,CLR,SKC,0.00,WeatherDisplay:10.37,2013-07-03 03:21:00,
2013-07-02 22:26:00,65.8,57.7,30.02,North,356,0.0,0.0,75,0.00,CLR,SKC,0.00,WeatherDisplay:10.37,2013-07-03 03:26:00,
2013-07-02 22:32:00,65.6,58.2,30.02,North,355,0.0,0.0,77,0.00,CLR,SKC,0.00,WeatherDisplay:10.37,2013-07-03 03:32:00,
2013-07-02 22:35:00,65.6,58.2,30.02,North,356,0.0,0.0,77,0.00,CLR,SKC,0.00,WeatherDisplay:10.37,2013-07-03 03:35:00,
2013-07-02 22:39:00,65.5,58.5,30.02,North,355,0.0,0.0,78,0.00,CLR,SKC,0.00,WeatherDisplay:10.37,2013-07-03 03:39:00,
2013-07-02 22:44:00,65.6,57.9,30.02,North,355,0.0,0.0,76,0.00,CLR,SKC,0.00,WeatherDisplay:10.37,2013-07-03 03:44:00,
2013-07-02 22:49:00,65.6,58.2,30.02,North,354,0.0,0.0,77,0.00,CLR,SKC,0.00,WeatherDisplay:10.37,2013-07-03 03:49:00,
2013-07-02 22:55:00,65.4,57.6,30.02,North,354,0.0,0.0,76,0.00,CLR,SKC,0.00,WeatherDisplay:10.37,2013-07-03 03:55:00,
2013-07-02 23:00:00,65.2,58.2,30.02,North,354,0.0,0.0,78,0.00,CLR,SKC,0.00,WeatherDisplay:10.37,2013-07-03 04:00:00,
2013-07-02 23:01:00,65.2,58.2,30.02,North,354,0.0,0.0,78,0.00,CLR,SKC,0.00,WeatherDisplay:10.37,2013-07-03 04:01:00,
2013-07-02 23:02:00,65.2,58.5,30.02,North,354,0.0,0.0,79,0.00,CLR,SKC,0.00,WeatherDisplay:10.37,2013-07-03 04:02:00,
2013-07-02 23:03:00,65.2,58.5,30.02,North,354,0.0,0.0,79,0.00,CLR,SKC,0.00,WeatherDisplay:10.37,2013-07-03 04:03:00,
2013-07-02 23:04:00,65.1,58.4,30.02,North,354,0.0,0.0,79,0.00,CLR,SKC,0.00,WeatherDisplay:10.37,2013-07-03 04:04:00,
2013-07-02 23:09:00,64.9,58.2,30.02,North,354,0.0,0.0,79,0.00,CLR,SKC,0.00,WeatherDisplay:10.37,2013-07-03 04:09:00,
2013-07-02 23:14:00,64.6,57.6,30.02,North,354,0.0,0.0,78,0.00,CLR,SKC,0.00,WeatherDisplay:10.37,2013-07-03 04:14:00,
2013-07-02 23:19:00,64.4,57.0,30.02,North,354,0.0,0.0,77,0.00,CLR,SKC,0.00,WeatherDisplay:10.37,2013-07-03 04:19:00,
2013-07-02 23:24:00,64.4,57.0,30.02,North,354,0.0,0.0,77,0.00,CLR,SKC,0.00,WeatherDisplay:10.37,2013-07-03 04:24:00,
2013-07-02 23:29:00,64.3,56.9,30.02,North,354,0.0,0.0,77,0.00,CLR,SKC,0.00,WeatherDisplay:10.37,2013-07-03 04:29:00,
2013-07-02 23:31:00,64.2,56.8,30.02,North,354,0.0,0.0,77,0.00,CLR,SKC,0.00,WeatherDisplay:10.37,2013-07-03 04:31:00,
2013-07-02 23:32:00,64.2,56.8,30.02,North,354,0.0,0.0,77,0.00,CLR,SKC,0.00,WeatherDisplay:10.37,2013-07-03 04:32:00,
2013-07-02 23:37:00,64.0,57.0,30.03,North,354,0.0,0.0,78,0.00,CLR,SKC,0.00,WeatherDisplay:10.37,2013-07-03 04:37:00,
2013-07-02 23:42:00,64.1,58.1,30.02,North,354,0.0,0.0,81,0.00,CLR,SKC,0.00,WeatherDisplay:10.37,2013-07-03 04:42:00,
2013-07-02 23:45:00,64.0,58.1,30.02,North,354,0.0,0.0,81,0.00,CLR,SKC,0.00,WeatherDisplay:10.37,2013-07-03 04:45:00,
2013-07-02 23:46:00,63.9,58.0,30.02,North,354,0.0,0.0,81,0.00,CLR,SKC,0.00,WeatherDisplay:10.37,2013-07-03 04:46:00,
2013-07-02 23:51:00,63.7,58.1,30.02,North,354,0.0,0.0,82,0.00,CLR,SKC,0.00,WeatherDisplay:10.37,2013-07-03 04:51:00,
2013-07-02 23:53:00,63.5,57.9,30.02,North,354,0.0,0.0,82,0.00,CLR,SKC,0.00,WeatherDisplay:10.37,2013-07-03 04:53:00,
2013-07-02 23:58:00,63.3,57.7,30.02,North,354,0.0,0.0,82,0.00,CLR,SKC,0.00,WeatherDisplay:10.37,2013-07-03 04:58:00,